This demonstration page uses our WeatherBlox Daily Observations layout. Learn more.

Left ArrowRight Arrow

Hourly Observations for April 16, 2021

Temp ( °F °C ) Dew Point ( °F °C ) Humidity (%) Winds ( mph kmh ) Pressure ( in mb ) Visibility ( mi km ) Precip ( " mm )
12:15 am 00:15 Cloudy with Light Rain 39 3.7 35 1.4 85 85 ENE 15 24 30.17 1022 10 16.0934 0.01 0.254
12:35 am 00:35 Cloudy with Light Rain 38 3.2 34 1.3 88 88 ENE 14 22 30.17 1022 10 16.0934 0.02 0.508
12:55 am 00:55 Cloudy with Light Rain 37 2.5 34 1 90 90 NE 13 20 30.18 1022 10 16.0934 0.03 0.762
1:15 am 01:15 Cloudy with Light Snow 34 1.2 32 0.1 92 92 NE 10 17 30.2 1023 4 6.43736 0.03 0.762
1:35 am 01:35 Cloudy with Light Snow 34 1 32 0.1 94 94 NNE 7 11 30.21 1023 2.5 4.02335 0.05 1.27
1:55 am 01:55 Cloudy with Light Snow 33 0.8 32 0.2 96 96 NNE 6 9 30.21 1023 1.75 2.816345 0.08 2.032
2:15 am 02:15 Cloudy with Light Snow 33 0.7 32 0.2 97 97 NNE 5 7 30.2 1023 1.5 2.41401 0.02 0.508
2:35 am 02:35 Cloudy with Light Snow 33 0.7 32 0.2 97 97 N 3 6 30.2 1023 1.5 2.41401 0.03 0.762
2:55 am 02:55 Cloudy with Snow 33 0.7 32 0.2 97 97 N 3 6 30.19 1022 0.75 1.207005 0.05 1.27
3:15 am 03:15 Cloudy with Light Snow 33 0.7 32 0.2 97 97 N 6 9 30.18 1022 2.5 4.02335 0.02 0.508
3:35 am 03:35 Cloudy with Light Snow 33 0.7 33 0.3 97 97 N 5 7 30.18 1022 3 4.82802 0.03 0.762
3:55 am 03:55 Cloudy with Light Snow 33 0.7 33 0.3 97 97 N 6 9 30.19 1022 3 4.82802 0.03 0.762
4:15 am 04:15 Cloudy with Light Snow 33 0.7 33 0.3 97 97 N 3 6 30.19 1022 1.75 2.816345 0.01 0.254
4:35 am 04:35 Cloudy with Light Snow 33 0.7 33 0.3 97 97 N 6 9 30.18 1022 2.5 4.02335 0.01 0.254
4:55 am 04:55 Cloudy with Light Snow 33 0.7 33 0.3 97 97 N 7 11 30.17 1022 3 4.82802 0.02 0.508
5:15 am 05:15 Cloudy with Light Snow 33 0.7 33 0.3 97 97 N 6 9 30.18 1022 4 6.43736 0 0
5:35 am 05:35 Cloudy with Light Snow 33 0.8 33 0.5 98 98 NNE 5 7 30.18 1022 1.5 2.41401 0 0
5:55 am 05:55 Cloudy with Snow 33 0.7 33 0.3 97 97 N 5 7 30.17 1022 0.75 1.207005 0.03 0.762
6:15 am 06:15 Cloudy with Light Snow 33 0.7 33 0.3 97 97 N 5 7 30.17 1022 1.5 2.41401 0.02 0.508
6:35 am 06:35 Cloudy with Light Snow 33 0.7 33 0.3 97 97 N 3 6 30.17 1022 1.75 2.816345 0.05 1.27
6:55 am 06:55 Cloudy with Light Snow 33 0.7 33 0.3 97 97 N 3 6 30.17 1022 2 3.21868 0.06 1.524
7:15 am 07:15 Cloudy with Light Snow 33 0.7 33 0.3 97 97 N 5 7 30.16 1021 2 3.21868 0.01 0.254
7:35 am 07:35 Cloudy with Light Snow 33 0.7 33 0.3 97 97 N 5 7 30.16 1021 1.25 2.011675 0.01 0.254
7:55 am 07:55 Cloudy with Light Snow 33 0.8 33 0.5 98 98 N 3 6 30.17 1022 2.5 4.02335 0.02 0.508
8:15 am 08:15 Cloudy with Light Wintry Mix 33 0.8 33 0.5 98 98 Calm 30.17 1022 2.5 4.02335 0 0
8:35 am 08:35 Cloudy with Light Wintry Mix 34 1 33 0.5 97 97 NNW 3 6 30.18 1022 2.5 4.02335 0 0
8:55 am 08:55 Cloudy with Light Wintry Mix 34 1 33 0.6 97 97 NNW 3 6 30.18 1022 2 3.21868 0 0
9:15 am 09:15 Cloudy with Light Wintry Mix 34 1 33 0.7 98 98 NNW 5 7 30.18 1022 1.75 2.816345 0.01 0.254
9:35 am 09:35 Cloudy with Light Snow 34 1.1 33 0.7 97 97 NNW 5 7 30.17 1022 1.5 2.41401 0.01 0.254
9:55 am 09:55 Cloudy with Light Snow 34 1.1 33 0.7 97 97 NW 5 7 30.17 1022 1.75 2.816345 0.01 0.254
10:15 am 10:15 Cloudy with Light Snow 34 1.2 33 0.8 97 97 NW 5 7 30.17 1022 1.5 2.41401 0.01 0.254
10:35 am 10:35 Cloudy with Light Snow 34 1.3 34 1 98 98 NNW 6 9 30.17 1022 1.5 2.41401 0.01 0.254
10:55 am 10:55 Cloudy with Light Wintry Mix 35 1.5 34 1 97 97 NNW 5 7 30.17 1022 2 3.21868 0.02 0.508
11:15 am 11:15 Cloudy with Light Rain 35 1.7 34 1.1 96 96 NNW 6 9 30.17 1022 4 6.43736 0 0
11:35 am 11:35 Cloudy with Light Rain 35 1.8 34 1.2 96 96 NNW 7 11 30.17 1022 5 8.0467 0 0
11:55 am 11:55 Cloudy with Light Rain 35 1.8 34 1.1 95 95 NNW 7 11 30.17 1022 5 8.0467 0 0
12:15 pm 12:15 Cloudy with Rain 35 1.8 34 1.1 95 95 NNW 7 11 30.17 1022 4 6.43736 0 0
12:35 pm 12:35 Cloudy with Light Rain 35 1.8 34 1.1 95 95 NNW 7 11 30.17 1022 3 4.82802 0 0
12:55 pm 12:55 Cloudy with Light Rain 35 1.8 34 1.1 95 95 NNW 6 9 30.17 1022 3 4.82802 0.01 0.254
1:15 pm 13:15 Cloudy with Light Rain 35 1.8 34 1.1 95 95 NNW 9 15 30.17 1022 3 4.82802 0 0
1:35 pm 13:35 Cloudy with Light Rain 35 1.8 34 1.1 95 95 NNW 8 13 30.17 1022 3 4.82802 0 0
1:55 pm 13:55 Cloudy with Light Rain 35 1.9 34 1.2 95 95 NNW 8 13 30.17 1022 4 6.43736 0.01 0.254
2:15 pm 14:15 Cloudy with Light Rain 36 2 34 1.3 95 95 NNW 9 15 30.17 1022 4 6.43736 0 0
2:35 pm 14:35 Cloudy with Rain 36 2 34 1.2 95 95 NNW 9 15 30.17 1022 4 6.43736 0.01 0.254
2:55 pm 14:55 Cloudy with Light Rain 36 2.2 35 1.5 95 95 NNW 8 13 30.16 1021 5 8.0467 0.01 0.254
3:15 pm 15:15 Cloudy with Light Rain 37 2.6 36 2 96 96 NNW 10 17 30.16 1021 7 11.26538 0 0
3:35 pm 15:35 Cloudy with Drizzle 38 3.1 36 2.3 95 95 NNW 7 11 30.16 1021 10 16.0934 0 0
3:55 pm 15:55 Cloudy with Rain 38 3.3 36 2.3 93 93 N 10 17 30.14 1021 10 16.0934 0 0
4:15 pm 16:15 Cloudy with Rain 38 3.3 36 2.2 93 93 NNW 9 15 30.14 1021 10 16.0934 0 0
4:35 pm 16:35 Cloudy with Drizzle 39 3.8 37 2.7 93 93 NNW 8 13 30.14 1021 7 11.26538 0 0
4:55 pm 16:55 Cloudy with Drizzle 39 4 37 2.8 92 92 NW 12 19 30.14 1021 7 11.26538 0.01 0.254
5:15 pm 17:15 Cloudy with Light Rain 39 4 37 2.6 91 91 NNW 13 20 30.14 1021 10 16.0934 0 0
5:35 pm 17:35 Cloudy with Drizzle 39 4 37 2.6 91 91 N 13 20 30.14 1021 10 16.0934 0 0
5:55 pm 17:55 Cloudy with Drizzle 40 4.5 38 3.2 91 91 NNW 14 22 30.13 1020 10 16.0934 0 0
6:15 pm 18:15 Cloudy with Drizzle 40 4.3 37 3 91 91 N 12 19 30.13 1020 10 16.0934 0 0
6:35 pm 18:35 Cloudy with Rain 40 4.3 37 3 91 91 N 13 20 30.14 1021 10 16.0934 0 0
6:55 pm 18:55 Cloudy with Drizzle 40 4.5 38 3.1 91 91 N 8 13 30.14 1021 10 16.0934 0 0
7:15 pm 19:15 Cloudy with Light Rain 40 4.5 38 3.2 91 91 N 12 19 30.14 1021 10 16.0934 0 0
7:35 pm 19:35 Cloudy with Rain 40 4.5 37 3 90 90 N 10 17 30.14 1021 10 16.0934 0 0
7:55 pm 19:55 Cloudy with Rain 40 4.2 37 2.8 91 91 N 9 15 30.15 1021 10 16.0934 0.01 0.254
8:15 pm 20:15 Cloudy with Drizzle 39 4 37 2.9 93 93 N 13 20 30.16 1021 10 16.0934 0 0
8:35 pm 20:35 Cloudy with Rain 39 4 37 2.6 91 91 N 10 17 30.16 1021 10 16.0934 0 0
8:55 pm 20:55 Cloudy with Rain 39 3.7 37 2.6 93 93 N 8 13 30.17 1022 10 16.0934 0.01 0.254
9:15 pm 21:15 Cloudy with Rain 39 3.7 37 2.7 93 93 N 9 15 30.18 1022 7 11.26538 0 0
9:35 pm 21:35 Cloudy with Light Rain 39 3.7 37 2.7 93 93 N 12 19 30.19 1022 10 16.0934 0.01 0.254
9:55 pm 21:55 Cloudy with Drizzle 39 3.7 37 2.7 93 93 N 7 11 30.19 1022 10 16.0934 0.01 0.254
10:15 pm 22:15 Cloudy with Light Rain 39 3.7 37 2.8 94 94 N 8 13 30.2 1023 10 16.0934 0 0
10:35 pm 22:35 Cloudy with Drizzle 39 3.7 37 3 95 95 N 10 17 30.2 1023 10 16.0934 0 0
10:55 pm 22:55 Cloudy with Drizzle 39 3.7 37 2.8 94 94 NNW 7 11 30.2 1023 10 16.0934 0 0
11:15 pm 23:15 Cloudy with Drizzle 39 3.7 37 2.9 95 95 NNW 9 15 30.2 1023 10 16.0934 0 0
11:35 pm 23:35 Cloudy with Drizzle 38 3.5 37 2.7 95 95 NNW 9 15 30.2 1023 10 16.0934 0.01 0.254
11:55 pm 23:55 Cloudy with Drizzle 38 3.5 37 2.7 95 95 NNW 8 13 30.2 1023 10 16.0934 0.01 0.254

Powered by AerisWeather